Time,TemperatureF,DewpointF,PressureIn,WindDirection,WindDirectionDegrees,WindSpeedMPH,WindSpeedGustMPH,Humidity,HourlyPrecipIn,Conditions,Clouds,dailyrainin,SoftwareType,DateUTC
2013-05-16 00:08:00,67.6,59.0,30.04,WNW,283,0.0,2.0,74,0.00,,,0.00,weatherlink.com 1.10,2013-05-16 04:08:00,
2013-05-16 00:23:00,67.0,59.0,30.04,SW,220,0.0,1.0,75,0.00,,,0.00,weatherlink.com 1.10,2013-05-16 04:23:00,
2013-05-16 00:38:00,66.3,59.0,30.04,SW,220,0.0,1.0,76,0.00,,,0.00,weatherlink.com 1.10,2013-05-16 04:38:00,
2013-05-16 00:53:00,65.8,58.0,30.04,SW,220,0.0,1.0,77,0.00,,,0.00,weatherlink.com 1.10,2013-05-16 04:53:00,
2013-05-16 01:08:00,65.5,58.0,30.04,SW,220,0.0,1.0,78,0.00,,,0.00,weatherlink.com 1.10,2013-05-16 05:08:00,
2013-05-16 01:23:00,65.2,58.0,30.03,SW,227,0.0,1.0,78,0.00,,,0.00,weatherlink.com 1.10,2013-05-16 05:23:00,
2013-05-16 01:38:00,65.3,58.0,30.04,SSW,200,0.0,2.0,76,0.00,,,0.00,weatherlink.com 1.10,2013-05-16 05:38:00,
2013-05-16 01:53:00,64.9,58.0,30.03,SSW,200,0.0,1.0,77,0.00,,,0.00,weatherlink.com 1.10,2013-05-16 05:53:00,
2013-05-16 02:08:00,64.9,57.0,30.03,SSW,200,0.0,1.0,75,0.00,,,0.00,weatherlink.com 1.10,2013-05-16 06:08:00,
2013-05-16 02:23:00,64.7,57.0,30.03,SSW,200,0.0,1.0,75,0.00,,,0.00,weatherlink.com 1.10,2013-05-16 06:23:00,
2013-05-16 02:38:00,64.5,56.0,30.02,SSW,200,0.0,1.0,75,0.00,,,0.00,weatherlink.com 1.10,2013-05-16 06:38:00,
2013-05-16 02:53:00,64.4,56.0,30.03,SSW,200,0.0,1.0,73,0.00,,,0.00,weatherlink.com 1.10,2013-05-16 06:53:00,
2013-05-16 03:08:00,64.6,55.0,30.02,SSW,205,0.0,2.0,70,0.00,,,0.00,weatherlink.com 1.10,2013-05-16 07:08:00,
2013-05-16 03:23:00,64.8,54.0,30.02,ESE,121,0.0,1.0,69,0.00,,,0.00,weatherlink.com 1.10,2013-05-16 07:23:00,
2013-05-16 03:38:00,64.7,54.0,30.02,SE,142,1.0,1.0,68,0.00,,,0.00,weatherlink.com 1.10,2013-05-16 07:38:00,
2013-05-16 03:53:00,64.7,55.0,30.02,SE,146,0.0,1.0,70,0.00,,,0.00,weatherlink.com 1.10,2013-05-16 07:53:00,
2013-05-16 04:08:00,64.4,54.0,30.01,NE,50,1.0,2.0,70,0.00,,,0.00,weatherlink.com 1.10,2013-05-16 08:08:00,
2013-05-16 04:23:00,64.4,55.0,30.01,NE,50,0.0,1.0,72,0.00,,,0.00,weatherlink.com 1.10,2013-05-16 08:23:00,
2013-05-16 04:38:00,64.4,56.0,30.01,NE,50,0.0,1.0,73,0.00,,,0.00,weatherlink.com 1.10,2013-05-16 08:38:00,
2013-05-16 04:53:00,64.4,56.0,30.02,NE,50,0.0,1.0,74,0.00,,,0.00,weatherlink.com 1.10,2013-05-16 08:53:00,
2013-05-16 05:08:00,64.3,56.0,30.02,NE,50,1.0,1.0,75,0.00,,,0.00,weatherlink.com 1.10,2013-05-16 09:08:00,
2013-05-16 05:23:00,64.1,56.0,30.02,NE,50,0.0,1.0,75,0.00,,,0.00,weatherlink.com 1.10,2013-05-16 09:23:00,
2013-05-16 05:38:00,63.7,56.0,30.02,NE,50,0.0,1.0,77,0.00,,,0.00,weatherlink.com 1.10,2013-05-16 09:38:00,
2013-05-16 05:53:00,63.4,56.0,30.03,NE,50,0.0,1.0,78,0.00,,,0.00,weatherlink.com 1.10,2013-05-16 09:53:00,
2013-05-16 06:08:00,63.0,57.0,30.03,NE,50,0.0,1.0,80,0.00,,,0.00,weatherlink.com 1.10,2013-05-16 10:08:00,
2013-05-16 06:23:00,62.6,57.0,30.03,NE,50,1.0,1.0,81,0.00,,,0.00,weatherlink.com 1.10,2013-05-16 10:23:00,
2013-05-16 06:38:00,62.3,57.0,30.04,NE,50,0.0,1.0,82,0.00,,,0.00,weatherlink.com 1.10,2013-05-16 10:38:00,
2013-05-16 06:54:00,62.0,57.0,30.05,NE,50,0.0,1.0,84,0.00,,,0.00,weatherlink.com 1.10,2013-05-16 10:54:00,
2013-05-16 07:09:00,62.1,58.0,30.05,NE,50,0.0,1.0,85,0.00,,,0.00,weatherlink.com 1.10,2013-05-16 11:09:00,
2013-05-16 07:24:00,62.5,58.0,30.05,NE,50,0.0,1.0,86,0.00,,,0.00,weatherlink.com 1.10,2013-05-16 11:24:00,
2013-05-16 07:39:00,63.1,59.0,30.06,NE,50,0.0,1.0,86,0.00,,,0.00,weatherlink.com 1.10,2013-05-16 11:39:00,
2013-05-16 07:54:00,64.0,60.0,30.06,East,91,1.0,2.0,86,0.00,,,0.00,weatherlink.com 1.10,2013-05-16 11:54:00,
2013-05-16 08:09:00,66.6,61.0,30.07,ENE,66,0.0,3.0,81,0.00,,,0.00,weatherlink.com 1.10,2013-05-16 12:09:00,
2013-05-16 08:24:00,68.3,61.0,30.07,NE,41,0.0,2.0,78,0.00,,,0.00,weatherlink.com 1.10,2013-05-16 12:24:00,
2013-05-16 08:39:00,69.3,61.0,30.08,NNE,23,1.0,2.0,75,0.00,,,0.00,weatherlink.com 1.10,2013-05-16 12:39:00,
2013-05-16 08:54:00,70.1,61.0,30.07,NNW,329,1.0,4.0,74,0.00,,,0.00,weatherlink.com 1.10,2013-05-16 12:54:00,
2013-05-16 09:09:00,71.0,62.0,30.08,WNW,296,1.0,3.0,72,0.00,,,0.00,weatherlink.com 1.10,2013-05-16 13:09:00,
2013-05-16 09:24:00,72.7,62.0,30.08,NW,308,0.0,2.0,69,0.00,,,0.00,weatherlink.com 1.10,2013-05-16 13:24:00,
2013-05-16 09:39:00,73.2,62.0,30.08,North,5,1.0,2.0,68,0.00,,,0.00,weatherlink.com 1.10,2013-05-16 13:39:00,
2013-05-16 09:54:00,74.3,62.0,30.08,WNW,290,2.0,5.0,66,0.00,,,0.00,weatherlink.com 1.10,2013-05-16 13:54:00,
2013-05-16 10:09:00,76.2,62.0,30.08,NW,313,1.0,3.0,62,0.00,,,0.00,weatherlink.com 1.10,2013-05-16 14:09:00,
2013-05-16 10:24:00,75.2,63.0,30.08,WNW,289,1.0,3.0,65,0.00,,,0.00,weatherlink.com 1.10,2013-05-16 14:24:00,
2013-05-16 10:39:00,77.5,62.0,30.09,WNW,284,2.0,2.0,59,0.00,,,0.00,weatherlink.com 1.10,2013-05-16 14:39:00,
2013-05-16 10:54:00,78.2,63.0,30.09,WNW,286,1.0,5.0,60,0.00,,,0.00,weatherlink.com 1.10,2013-05-16 14:54:00,
2013-05-16 11:09:00,78.1,62.0,30.09,WNW,296,1.0,4.0,59,0.00,,,0.00,weatherlink.com 1.10,2013-05-16 15:09:00,
2013-05-16 11:24:00,78.4,64.0,30.09,WNW,288,1.0,2.0,61,0.00,,,0.00,weatherlink.com 1.10,2013-05-16 15:24:00,
2013-05-16 11:39:00,77.6,63.0,30.09,WNW,292,0.0,5.0,60,0.00,,,0.00,weatherlink.com 1.10,2013-05-16 15:39:00,
2013-05-16 11:54:00,77.3,63.0,30.09,WNW,284,1.0,3.0,61,0.00,,,0.00,weatherlink.com 1.10,2013-05-16 15:54:00,
2013-05-16 12:09:00,76.9,65.0,30.09,ESE,108,1.0,2.0,66,0.00,,,0.00,weatherlink.com 1.10,2013-05-16 16:09:00,
2013-05-16 12:24:00,76.4,65.0,30.09,ESE,108,0.0,2.0,68,0.00,,,0.00,weatherlink.com 1.10,2013-05-16 16:24:00,
2013-05-16 12:39:00,75.0,65.0,30.09,East,101,1.0,1.0,70,0.00,,,0.00,weatherlink.com 1.10,2013-05-16 16:39:00,
2013-05-16 12:54:00,74.4,66.0,30.09,East,101,1.0,1.0,74,0.00,,,0.00,weatherlink.com 1.10,2013-05-16 16:54:00,
2013-05-16 13:09:00,74.4,65.0,30.08,East,101,0.0,1.0,73,0.00,,,0.00,weatherlink.com 1.10,2013-05-16 17:09:00,
2013-05-16 13:24:00,74.7,67.0,30.07,East,101,0.0,1.0,76,0.00,,,0.00,weatherlink.com 1.10,2013-05-16 17:24:00,
2013-05-16 13:39:00,74.5,67.0,30.07,East,101,1.0,1.0,76,0.00,,,0.00,weatherlink.com 1.10,2013-05-16 17:39:00,
2013-05-16 13:54:00,75.6,66.0,30.07,East,101,0.0,2.0,71,0.00,,,0.00,weatherlink.com 1.10,2013-05-16 17:54:00,
2013-05-16 14:09:00,77.4,64.0,30.06,NNE,25,0.0,3.0,64,0.00,,,0.00,weatherlink.com 1.10,2013-05-16 18:09:00,
2013-05-16 14:24:00,78.3,64.0,30.06,South,180,1.0,3.0,62,0.00,,,0.00,weatherlink.com 1.10,2013-05-16 18:24:00,
2013-05-16 14:39:00,80.2,66.0,30.05,NNW,327,1.0,2.0,63,0.00,,,0.00,weatherlink.com 1.10,2013-05-16 18:39:00,
2013-05-16 14:54:00,80.8,65.0,30.05,East,99,1.0,3.0,58,0.00,,,0.00,weatherlink.com 1.10,2013-05-16 18:54:00,
2013-05-16 15:09:00,80.3,64.0,30.04,SE,126,0.0,2.0,58,0.00,,,0.00,weatherlink.com 1.10,2013-05-16 19:09:00,
2013-05-16 15:24:00,82.5,64.0,30.04,NNW,341,0.0,3.0,53,0.00,,,0.00,weatherlink.com 1.10,2013-05-16 19:24:00,
2013-05-16 15:40:00,82.7,62.0,30.03,NE,34,1.0,3.0,50,0.00,,,0.00,weatherlink.com 1.10,2013-05-16 19:40:00,
2013-05-16 15:55:00,81.8,63.0,30.03,West,263,0.0,3.0,53,0.00,,,0.00,weatherlink.com 1.10,2013-05-16 19:55:00,
2013-05-16 16:10:00,81.6,63.0,30.03,SSW,197,1.0,2.0,54,0.00,,,0.00,weatherlink.com 1.10,2013-05-16 20:10:00,
2013-05-16 16:25:00,80.7,63.0,30.02,SE,137,0.0,3.0,56,0.00,,,0.00,weatherlink.com 1.10,2013-05-16 20:25:00,
2013-05-16 16:40:00,81.4,63.0,30.02,ESE,115,0.0,3.0,53,0.00,,,0.00,weatherlink.com 1.10,2013-05-16 20:40:00,
2013-05-16 16:55:00,82.1,63.0,30.02,East,92,0.0,2.0,53,0.00,,,0.00,weatherlink.com 1.10,2013-05-16 20:55:00,
2013-05-16 17:10:00,81.8,63.0,30.01,SSE,166,1.0,4.0,53,0.00,,,0.00,weatherlink.com 1.10,2013-05-16 21:10:00,
2013-05-16 17:25:00,81.7,63.0,30.01,SE,134,2.0,2.0,53,0.00,,,0.00,weatherlink.com 1.10,2013-05-16 21:25:00,
2013-05-16 17:40:00,82.1,63.0,30.01,East,100,0.0,3.0,53,0.00,,,0.00,weatherlink.com 1.10,2013-05-16 21:40:00,
2013-05-16 17:55:00,82.0,63.0,30.01,NE,54,1.0,2.0,52,0.00,,,0.00,weatherlink.com 1.10,2013-05-16 21:55:00,
2013-05-16 18:10:00,82.1,63.0,30.01,WNW,286,1.0,2.0,53,0.00,,,0.00,weatherlink.com 1.10,2013-05-16 22:10:00,
2013-05-16 18:25:00,82.3,65.0,30.01,SW,216,1.0,3.0,57,0.00,,,0.00,weatherlink.com 1.10,2013-05-16 22:25:00,
2013-05-16 18:40:00,80.5,67.0,30.01,East,97,1.0,3.0,63,0.00,,,0.00,weatherlink.com 1.10,2013-05-16 22:40:00,
2013-05-16 18:55:00,78.5,67.0,30.01,NNW,329,0.0,4.0,67,0.00,,,0.00,weatherlink.com 1.10,2013-05-16 22:55:00,
2013-05-16 19:10:00,78.5,67.0,30.01,SW,216,0.0,2.0,67,0.00,,,0.00,weatherlink.com 1.10,2013-05-16 23:10:00,
2013-05-16 19:25:00,77.7,66.0,30.01,SSW,213,1.0,2.0,68,0.00,,,0.00,weatherlink.com 1.10,2013-05-16 23:25:00,
2013-05-16 19:40:00,76.7,66.0,30.01,NNW,336,1.0,2.0,69,0.00,,,0.00,weatherlink.com 1.10,2013-05-16 23:40:00,
2013-05-16 19:55:00,75.8,64.0,30.02,West,275,0.0,1.0,68,0.00,,,0.00,weatherlink.com 1.10,2013-05-16 23:55:00,
2013-05-16 20:10:00,74.6,65.0,30.02,West,275,0.0,1.0,72,0.00,,,0.00,weatherlink.com 1.10,2013-05-17 00:10:00,
2013-05-16 20:25:00,73.3,65.0,30.02,West,275,0.0,1.0,76,0.00,,,0.00,weatherlink.com 1.10,2013-05-17 00:25:00,
2013-05-16 20:40:00,72.5,65.0,30.02,West,275,0.0,1.0,78,0.00,,,0.00,weatherlink.com 1.10,2013-05-17 00:40:00,
2013-05-16 20:55:00,72.0,66.0,30.02,West,275,0.0,1.0,80,0.00,,,0.00,weatherlink.com 1.10,2013-05-17 00:55:00,
2013-05-16 21:10:00,71.5,66.0,30.03,West,275,0.0,1.0,82,0.00,,,0.00,weatherlink.com 1.10,2013-05-17 01:10:00,
2013-05-16 21:25:00,71.1,66.0,30.03,West,275,1.0,1.0,83,0.00,,,0.00,weatherlink.com 1.10,2013-05-17 01:25:00,
2013-05-16 21:40:00,70.9,66.0,30.04,SW,220,0.0,1.0,83,0.00,,,0.00,weatherlink.com 1.10,2013-05-17 01:40:00,
2013-05-16 21:55:00,70.3,66.0,30.04,SW,220,0.0,0.0,86,0.00,,,0.00,weatherlink.com 1.10,2013-05-17 01:55:00,
2013-05-16 22:10:00,69.9,66.0,30.04,SW,220,0.0,1.0,87,0.00,,,0.00,weatherlink.com 1.10,2013-05-17 02:10:00,
2013-05-16 22:25:00,70.1,67.0,30.05,SW,215,0.0,2.0,88,0.00,,,0.00,weatherlink.com 1.10,2013-05-17 02:25:00,
2013-05-16 22:40:00,69.7,66.0,30.05,SW,215,0.0,1.0,89,0.00,,,0.00,weatherlink.com 1.10,2013-05-17 02:40:00,
2013-05-16 22:55:00,69.2,67.0,30.05,SW,215,1.0,1.0,91,0.00,,,0.00,weatherlink.com 1.10,2013-05-17 02:55:00,
2013-05-16 23:10:00,68.8,66.0,30.05,SW,215,0.0,0.0,92,0.00,,,0.00,weatherlink.com 1.10,2013-05-17 03:10:00,
2013-05-16 23:25:00,68.7,66.0,30.05,SW,215,0.0,1.0,92,0.00,,,0.00,weatherlink.com 1.10,2013-05-17 03:25:00,
2013-05-16 23:40:00,68.6,66.0,30.05,SW,230,0.0,2.0,92,0.00,,,0.00,weatherlink.com 1.10,2013-05-17 03:40:00,
2013-05-16 23:55:00,68.5,66.0,30.05,SW,231,0.0,2.0,92,0.00,,,0.00,weatherlink.com 1.10,2013-05-17 03:55:00,